CW2274 Weather Reports


Display with metric or nautical units.
time (UTC)temp
F
wind
direction
speed
MPH
gust
MPH
rain 1hr
in
rain 24hr
in
rain mn
in
humidity
%
barometer
mb
20260904093524 79 130 1.0 3.0 0.00 0.00 0.00 68 1015.3
20260904093017 79 130 2.0 4.0 0.00 0.00 0.00 67 1015.2
20260904092531 79 130 2.0 5.0 0.00 0.00 0.00 67 1015.2
20260904092025 79 131 3.0 5.0 0.00 0.00 0.00 67 1015.3
20260904091524 79 134 3.0 5.0 0.00 0.00 0.00 67 1015.3
20260904091019 79 136 2.0 6.0 0.00 0.00 0.00 67 1015.2
20260904090513 79 137 3.0 6.0 0.00 0.00 0.00 67 1015.2
20260904090040 79 137 3.0 6.0 0.00 0.00 0.00 67 1015.3
20260904085520 79 129 3.0 6.0 0.00 0.00 0.00 67 1015.2
20260904085015 79 121 3.0 5.0 0.00 0.00 0.00 66 1015.2
20260904084530 80 117 3.0 5.0 0.00 0.00 0.00 66 1015.3
20260904084029 80 115 3.0 6.0 0.00 0.00 0.00 66 1015.2
20260904083524 80 110 3.0 8.0 0.00 0.00 0.00 66 1015.3
20260904083019 80 106 4.0 8.0 0.00 0.00 0.00 66 1015.2
20260904082513 80 113 4.0 6.0 0.00 0.00 0.00 66 1015.3
20260904082028 80 125 3.0 6.0 0.00 0.00 0.00 66 1015.4
20260904081523 80 123 2.0 6.0 0.00 0.00 0.00 66 1015.4
20260904081018 80 123 3.0 6.0 0.00 0.00 0.00 66 1015.4
20260904080517 80 110 1.0 3.0 0.00 0.00 0.00 66 1015.4
20260904080045 80 110 1.0 4.0 0.00 0.00 0.00 66 1015.4
20260904075525 80 110 2.0 4.0 0.00 0.00 0.00 66 1015.4
20260904075019 80 110 3.0 5.0 0.00 0.00 0.00 65 1015.4
20260904074513 80 110 3.0 5.0 0.00 0.00 0.00 65 1015.4
20260904074027 80 110 3.0 5.0 0.00 0.00 0.00 65 1015.4
20260904073521 80 110 2.0 6.0 0.00 0.00 0.00 65 1015.5
20260904073015 80 137 3.0 5.0 0.00 0.00 0.00 64 1015.5
20260904072514 81 138 3.0 8.0 0.00 0.00 0.00 64 1015.5
20260904072028 81 140 3.0 8.0 0.00 0.00 0.00 64 1015.6
20260904071522 81 100 3.0 5.0 0.00 0.00 0.00 64 1015.7
20260904071016 81 98 3.0 5.0 0.00 0.00 0.00 63 1015.7
20260904070511 81 97 3.0 7.0 0.00 0.00 0.00 63 1015.8
20260904070038 81 96 3.0 7.0 0.00 0.00 0.00 63 1015.8
20260904065519 81 90 4.0 7.0 0.00 0.00 0.00 63 1015.8
20260904065017 81 92 2.0 9.0 0.00 0.00 0.00 63 1015.6
20260904064511 81 93 3.0 9.0 0.00 0.00 0.00 63 1015.8
20260904064026 81 98 4.0 7.0 0.00 0.00 0.00 63 1015.7
20260904063520 81 113 3.0 5.0 0.00 0.00 0.00 62 1015.6
20260904063015 81 115 3.0 4.0 0.00 0.00 0.00 61 1015.7
20260904062530 81 116 3.0 6.0 0.00 0.00 0.00 61 1015.7
20260904062025 81 117 3.0 5.0 0.00 0.00 0.00 61 1015.6
20260904061519 82 118 3.0 5.0 0.00 0.00 0.00 61 1015.6
20260904061018 82 120 3.0 4.0 0.00 0.00 0.00 60 1015.7
20260904060512 82 120 2.0 5.0 0.00 0.00 0.00 60 1015.5
20260904060038 82 120 3.0 5.0 0.00 0.00 0.00 60 1015.5
20260904055518 82 121 3.0 6.0 0.00 0.00 0.00 60 1015.5
20260904055012 82 121 3.0 6.0 0.00 0.00 0.00 60 1015.5
20260904054526 82 129 3.0 6.0 0.00 0.00 0.00 59 1015.4
20260904054019 82 137 2.0 6.0 0.00 0.00 0.00 59 1015.5
20260904053517 82 150 3.0 6.0 0.00 0.00 0.00 59 1015.4
20260904053012 82 154 3.0 8.0 0.00 0.00 0.00 58 1015.4
20260904052526 83 128 5.0 9.0 0.00 0.00 0.00 58 1015.4
20260904052020 83 122 4.0 9.0 0.00 0.00 0.00 57 1015.4
20260904051514 83 115 5.0 9.0 0.00 0.00 0.00 57 1015.3
20260904051029 83 124 5.0 9.0 0.00 0.00 0.00 57 1015.3
20260904050524 84 121 5.0 8.0 0.00 0.00 0.00 57 1015.4
20260904050032 84 119 5.0 9.0 0.00 0.00 0.00 56 1015.4
20260904045516 84 90 4.0 9.0 0.00 0.00 0.00 56 1015.5
20260904045030 84 101 3.0 7.0 0.00 0.00 0.00 56 1015.5
20260904044524 84 80 3.0 10.0 0.00 0.00 0.00 57 1015.5
20260904044018 84 133 7.0 10.0 0.00 0.00 0.00 56 1015.6
20260904043513 84 95 3.0 9.0 0.00 0.00 0.00 57 1015.8
20260904043019 84 116 5.0 9.0 0.00 0.00 0.00 56 1015.5
20260904042513 84 96 5.0 9.0 0.00 0.00 0.00 56 1015.5
20260904042012 84 103 5.0 8.0 0.00 0.00 0.00 56 1015.6
20260904041526 84 98 4.0 8.0 0.00 0.00 0.00 56 1015.6
20260904041020 84 97 5.0 9.0 0.00 0.00 0.00 57 1015.6
20260904040515 84 90 4.0 8.0 0.00 0.00 0.00 58 1015.4
20260904040040 84 86 4.0 10.0 0.00 0.00 0.00 58 1015.5
20260904035524 84 108 6.0 10.0 0.00 0.00 0.00 58 1015.4
20260904035018 84 105 4.0 10.0 0.00 0.00 0.00 58 1015.3
20260904034513 84 113 5.0 9.0 0.00 0.00 0.00 58 1015.3
20260904034012 84 113 5.0 9.0 0.00 0.00 0.00 58 1015.2
20260904033527 84 91 3.0 9.0 0.00 0.00 0.00 57 1015.1
20260904033024 84 83 5.0 9.0 0.00 0.00 0.00 57 1015.1
20260904032019 84 82 4.0 7.0 0.00 0.00 0.00 56 1015.0
20260904031515 84 92 4.0 7.0 0.00 0.00 0.00 56 1014.8
20260904031031 85 129 2.0 6.0 0.00 0.00 0.00 56 1014.6
20260904030527 85 134 1.0 8.0 0.00 0.00 0.00 56 1014.5
20260904030040 85 111 3.0 8.0 0.00 0.00 0.00 57 1014.5
20260904025521 85 116 5.0 9.0 0.00 0.00 0.00 57 1014.5
20260904025017 85 175 4.0 9.0 0.00 0.00 0.00 56 1014.6
20260904024533 85 140 3.0 8.0 0.00 0.00 0.00 57 1014.4
20260904024029 85 188 4.0 11.0 0.00 0.00 0.00 56 1014.3
20260904023525 85 107 5.0 10.0 0.00 0.00 0.00 56 1014.2
20260904023021 85 140 4.0 9.0 0.00 0.00 0.00 55 1014.1
20260904022522 85 110 5.0 9.0 0.00 0.00 0.00 55 1014.1
20260904022018 85 117 6.0 9.0 0.00 0.00 0.00 54 1014.2
20260904021514 85 128 4.0 8.0 0.00 0.00 0.00 54 1014.1
20260904021031 86 130 4.0 8.0 0.00 0.00 0.00 54 1014.0
20260904020526 86 119 5.0 9.0 0.00 0.00 0.00 53 1014.0
20260904020033 86 151 3.0 9.0 0.00 0.00 0.00 53 1014.0
20260904015515 86 138 4.0 9.0 0.00 0.00 0.00 53 1013.9
20260904015015 86 142 4.0 9.0 0.00 0.00 0.00 52 1013.8
20260904014531 86 201 4.0 11.0 0.00 0.00 0.00 50 1013.6
20260904014027 86 133 4.0 9.0 0.00 0.00 0.00 50 1013.5
20260904013523 86 149 4.0 13.0 0.00 0.00 0.00 51 1013.6
20260904013019 86 181 5.0 16.0 0.00 0.00 0.00 51 1013.5
20260904012515 87 123 9.0 16.0 0.00 0.00 0.00 50 1013.6
20260904012031 88 141 6.0 13.0 0.00 0.00 0.00 46 1013.6
20260904011531 88 190 5.0 10.0 0.00 0.00 0.00 46 1013.4
20260904011027 89 159 3.0 10.0 0.00 0.00 0.00 46 1013.3
20260904010523 89 148 4.0 9.0 0.00 0.00 0.00 46 1013.2
20260904010030 89 174 4.0 9.0 0.00 0.00 0.00 45 1013.3
20260904005532 89 217 3.0 7.0 0.00 0.00 0.00 46 1013.3
20260904005028 89 235 4.0 7.0 0.00 0.00 0.00 46 1013.4
20260904004524 89 155 4.0 9.0 0.00 0.00 0.00 46 1013.4
20260904004024 89 135 5.0 11.0 0.00 0.00 0.00 47 1013.5
20260904003520 90 138 3.0 11.0 0.00 0.00 0.00 47 1013.4
20260904003016 90 196 4.0 10.0 0.00 0.00 0.00 47 1013.5
20260904002531 90 204 4.0 14.0 0.00 0.00 0.00 46 1013.4
20260904002027 90 215 7.0 14.0 0.00 0.00 0.00 46 1013.3
20260904001523 91 185 5.0 11.0 0.00 0.00 0.00 45 1013.2
20260904001019 91 135 4.0 11.0 0.00 0.00 0.00 44 1013.2
20260904000519 91 134 6.0 11.0 0.00 0.00 0.00 42 1013.2
20260904000028 92 110 4.0 11.0 0.00 0.00 0.00 43 1013.2
20260903235529 92 112 4.0 9.0 0.00 0.00 0.00 44 1013.3
20260903235025 91 225 5.0 9.0 0.00 0.00 0.00 46 1013.2
20260903234521 90 85 5.0 11.0 0.00 0.00 0.00 47 1013.4
20260903234017 90 60 6.0 11.0 0.00 0.00 0.00 48 1013.4
20260903233513 91 48 6.0 10.0 0.00 0.00 0.00 46 1013.4
20260903233013 91 49 5.0 10.0 0.00 0.00 0.00 46 1013.5
20260903232529 91 85 3.0 12.0 0.00 0.00 0.00 45 1013.5
20260903232025 91 120 8.0 10.0 0.00 0.00 0.00 45 1013.5
20260903231521 91 121 7.0 10.0 0.00 0.00 0.00 45 1013.6
20260903231017 91 137 5.0 9.0 0.00 0.00 0.00 46 1013.5
20260903230513 91 54 4.0 9.0 0.00 0.00 0.00 47 1013.6
20260903230040 91 69 2.0 7.0 0.00 0.00 0.00 44 1013.4
20260903225523 91 66 4.0 7.0 0.00 0.00 0.00 44 1013.5
20260903225023 92 67 4.0 9.0 0.00 0.00 0.00 43 1013.5
20260903224519 92 85 5.0 9.0 0.00 0.00 0.00 43 1013.4
20260903224015 92 29 3.0 6.0 0.00 0.00 0.00 43 1013.5
20260903223531 93 29 3.0 6.0 0.00 0.00 0.00 42 1013.6
20260903223027 90 323 2.0 6.0 0.00 0.00 0.00 45 1013.5
20260903222523 91 316 3.0 6.0 0.00 0.00 0.00 43 1013.6
20260903222019 91 291 1.0 4.0 0.00 0.00 0.00 44 1013.5
20260903221518 92 290 2.0 7.0 0.00 0.00 0.00 43 1013.8
20260903221033 92 24 2.0 5.0 0.00 0.00 0.00 44 1013.8
20260903220528 92 27 2.0 5.0 0.00 0.00 0.00 44 1013.9
20260903220037 92 31 1.0 5.0 0.00 0.00 0.00 43 1014.0
20260903215518 92 31 1.0 5.0 0.00 0.00 0.00 43 1013.9
20260903215014 92 33 2.0 5.0 0.00 0.00 0.00 44 1013.9
20260903214530 92 33 2.0 7.0 0.00 0.00 0.00 43 1014.1
20260903214030 93 296 3.0 8.0 0.00 0.00 0.00 43 1014.1
20260903213525 93 296 3.0 8.0 0.00 0.00 0.00 42 1014.2
20260903213021 93 312 3.0 7.0 0.00 0.00 0.00 43 1014.1
20260903212517 92 5 2.0 7.0 0.00 0.00 0.00 44 1014.0
20260903212013 92 5 1.0 6.0 0.00 0.00 0.00 43 1014.2
20260903211529 92 356 3.0 6.0 0.00 0.00 0.00 44 1014.1
20260903211026 91 330 3.0 8.0 0.00 0.00 0.00 45 1014.3
20260903210526 93 269 2.0 8.0 0.00 0.00 0.00 43 1014.2
20260903210033 94 288 2.0 8.0 0.00 0.00 0.00 42 1014.2
20260903205515 92 330 1.0 3.0 0.00 0.00 0.00 43 1014.4
20260903205029 90 330 2.0 5.0 0.00 0.00 0.00 44 1014.5
20260903204525 90 329 1.0 6.0 0.00 0.00 0.00 45 1014.8
20260903204021 92 329 1.0 6.0 0.00 0.00 0.00 43 1014.8
20260903203517 92 329 2.0 5.0 0.00 0.00 0.00 44 1014.7
20260903203017 92 329 3.0 5.0 0.00 0.00 0.00 43 1014.9
20260903202513 91 325 3.0 5.0 0.00 0.00 0.00 43 1014.9
20260903202029 91 312 3.0 5.0 0.00 0.00 0.00 44 1015.0
20260903201525 92 259 2.0 4.0 0.00 0.00 0.00 43 1015.2
20260903201021 91 257 1.0 4.0 0.00 0.00 0.00 44 1015.2
20260903200517 90 224 2.0 5.0 0.00 0.00 0.00 46 1015.3
20260903200045 91 224 2.0 5.0 0.00 0.00 0.00 45 1015.4
20260903195527 90 121 3.0 6.0 0.00 0.00 0.00 45 1015.5
20260903195027 91 116 4.0 6.0 0.00 0.00 0.00 45 1015.5
20260903194523 89 79 2.0 9.0 0.00 0.00 0.00 47 1015.7
20260903194019 89 79 3.0 9.0 0.00 0.00 0.00 47 1015.9
20260903193515 89 106 4.0 8.0 0.00 0.00 0.00 47 1015.9
20260903193031 89 102 4.0 8.0 0.00 0.00 0.00 46 1015.9
20260903192527 91 148 3.0 8.0 0.00 0.00 0.00 46 1016.0
20260903192023 90 96 3.0 7.0 0.00 0.00 0.00 46 1016.1
20260903191523 89 88 3.0 7.0 0.00 0.00 0.00 46 1016.2
20260903191019 90 71 1.0 4.0 0.00 0.00 0.00 46 1016.3
20260903190515 91 256 2.0 4.0 0.00 0.00 0.00 45 1016.3
20260903190042 91 256 2.0 4.0 0.00 0.00 0.00 47 1016.4
20260903185524 90 233 1.0 5.0 0.00 0.00 0.00 47 1016.5
20260903185020 90 233 1.0 5.0 0.00 0.00 0.00 47 1016.7
20260903184516 89 233 2.0 5.0 0.00 0.00 0.00 49 1016.9
20260903184016 88 220 2.0 6.0 0.00 0.00 0.00 50 1016.8
20260903183532 88 218 4.0 9.0 0.00 0.00 0.00 49 1017.0
20260903183028 87 93 3.0 9.0 0.00 0.00 0.00 52 1017.1
20260903182524 87 106 4.0 8.0 0.00 0.00 0.00 50 1017.2
20260903182020 87 116 3.0 8.0 0.00 0.00 0.00 49 1017.3
20260903181516 89 220 2.0 5.0 0.00 0.00 0.00 52 1017.4
20260903181032 86 219 2.0 5.0 0.00 0.00 0.00 52 1017.5
20260903180532 85 219 2.0 5.0 0.00 0.00 0.00 51 1017.5
20260903180039 86 219 2.0 5.0 0.00 0.00 0.00 52 1017.5
20260903175521 85 72 2.0 6.0 0.00 0.00 0.00 55 1017.7
20260903175016 85 72 3.0 8.0 0.00 0.00 0.00 55 1017.6
20260903174532 85 72 2.0 8.0 0.00 0.00 0.00 56 1017.7
20260903174028 84 69 2.0 7.0 0.00 0.00 0.00 56 1017.6
20260903173524 84 66 4.0 7.0 0.00 0.00 0.00 57 1017.7
20260903173024 85 102 3.0 6.0 0.00 0.00 0.00 56 1017.7
20260903172520 86 69 3.0 6.0 0.00 0.00 0.00 57 1017.8
20260903172016 84 113 3.0 4.0 0.00 0.00 0.00 56 1017.8
20260903171532 83 105 2.0 6.0 0.00 0.00 0.00 59 1017.7
20260903171028 83 108 3.0 6.0 0.00 0.00 0.00 60 1017.7
20260903170524 83 212 1.0 3.0 0.00 0.00 0.00 60 1017.8
20260903170033 83 145 1.0 5.0 0.00 0.00 0.00 61 1017.8
20260903165518 82 154 3.0 5.0 0.00 0.00 0.00 60 1017.7
20260903165015 82 286 2.0 4.0 0.00 0.00 0.00 59 1017.7
20260903164530 82 304 2.0 4.0 0.00 0.00 0.00 60 1017.7
20260903164026 82 295 2.0 4.0 0.00 0.00 0.00 61 1017.7
20260903163522 82 295 2.0 4.0 0.00 0.00 0.00 61 1017.7
20260903163018 82 297 2.0 4.0 0.00 0.00 0.00 64 1017.7
20260903162514 81 297 2.0 3.0 0.00 0.00 0.00 63 1017.7
20260903162014 82 298 2.0 3.0 0.00 0.00 0.00 63 1017.8
20260903161529 82 298 1.0 3.0 0.00 0.00 0.00 62 1017.9
20260903161025 82 298 1.0 5.0 0.00 0.00 0.00 62 1017.9
20260903160520 81 298 3.0 5.0 0.00 0.00 0.00 63 1017.8
20260903160047 81 298 2.0 4.0 0.00 0.00 0.00 62 1017.7
20260903155526 81 298 1.0 3.0 0.00 0.00 0.00 63 1017.7
20260903155022 81 298 1.0 3.0 0.00 0.00 0.00 62 1017.8
20260903154518 80 298 1.0 3.0 0.00 0.00 0.00 63 1017.8
20260903154018 80 298 2.0 3.0 0.00 0.00 0.00 65 1017.7
20260903153514 80 347 1.0 2.0 0.00 0.00 0.00 65 1017.7
20260903153030 80 347 1.0 2.0 0.00 0.00 0.00 65 1017.7
20260903152526 80 347 0.0 2.0 0.00 0.00 0.00 64 1017.6
20260903152022 80 347 0.0 2.0 0.00 0.00 0.00 66 1017.7
20260903151518 80 347 1.0 2.0 0.00 0.00 0.00 64 1017.8
20260903151014 79 347 1.0 3.0 0.00 0.00 0.00 66 1017.8
20260903150514 79 347 2.0 3.0 0.00 0.00 0.00 65 1017.8
20260903150042 80 347 2.0 3.0 0.00 0.00 0.00 66 1017.9
20260903145524 79 347 0.0 2.0 0.00 0.00 0.00 67 1017.7
20260903145021 79 347 1.0 4.0 0.00 0.00 0.00 67 1017.8
20260903144517 78 347 1.0 4.0 0.00 0.00 0.00 68 1017.9
20260903144014 79 347 0.0 4.0 0.00 0.00 0.00 69 1017.9
20260903143531 79 347 1.0 3.0 0.00 0.00 0.00 69 1017.8
20260903143031 78 348 1.0 3.0 0.00 0.00 0.00 69 1017.8
20260903142527 78 347 1.0 3.0 0.00 0.00 0.00 68 1017.8
20260903141526 78 347 1.0 3.0 0.00 0.00 0.00 65 1017.8
20260903141022 78 350 1.0 3.0 0.00 0.00 0.00 66 1017.8
20260903140518 77 353 1.0 4.0 0.00 0.00 0.00 66 1017.9
20260903140045 78 354 1.0 6.0 0.00 0.00 0.00 66 1017.9
20260903135526 78 360 2.0 6.0 0.00 0.00 0.00 66 1017.7
20260903135022 78 331 2.0 7.0 0.00 0.00 0.00 64 1017.7
20260903134522 79 358 3.0 7.0 0.00 0.00 0.00 64 1017.6
20260903134018 79 355 2.0 5.0 0.00 0.00 0.00 63 1017.5
20260903133514 79 354 2.0 4.0 0.00 0.00 0.00 63 1017.3
20260903133030 79 354 0.0 3.0 0.00 0.00 0.00 63 1017.2
20260903132526 79 354 1.0 3.0 0.00 0.00 0.00 61 1017.3
20260903132022 79 354 1.0 3.0 0.00 0.00 0.00 61 1017.2
20260903131518 79 354 0.0 2.0 0.00 0.00 0.00 63 1017.2
20260903131018 79 354 1.0 6.0 0.00 0.00 0.00 62 1017.0
20260903130514 79 354 2.0 10.0 0.00 0.00 0.00 61 1017.0
20260903130042 79 290 2.0 11.0 0.00 0.00 0.00 62 1016.9
20260903125524 79 272 6.0 11.0 0.00 0.00 0.00 62 1016.9
20260903125020 79 285 2.0 11.0 0.00 0.00 0.00 62 1016.9
20260903124516 79 256 7.0 11.0 0.00 0.00 0.00 64 1016.8
20260903124032 79 265 3.0 11.0 0.00 0.00 0.00 64 1016.7
20260903123532 79 277 3.0 11.0 0.00 0.00 0.00 62 1016.6
20260903123028 80 267 4.0 10.0 0.00 0.00 0.00 62 1016.7
20260903122524 79 225 2.0 4.0 0.00 0.00 0.00 64 1016.5
20260903122020 79 169 0.0 4.0 0.00 0.00 0.00 69 1016.6
20260903121516 79 169 0.0 5.0 0.00 0.00 0.00 69 1016.5
20260903121031 79 143 2.0 5.0 0.00 0.00 0.00 69 1016.6
20260903120527 79 114 3.0 4.0 0.00 0.00 0.00 70 1016.6
20260903120038 79 113 2.0 3.0 0.00 0.00 0.00 70 1016.5
20260903115520 79 113 1.0 3.0 0.00 0.00 0.00 70 1016.4
20260903115016 79 113 1.0 2.0 0.00 0.00 0.00 69 1016.4
20260903114532 79 113 1.0 1.0 0.00 0.00 0.00 69 1016.3
20260903114028 79 113 0.0 2.0 0.00 0.00 0.00 68 1016.3
20260903113524 79 113 1.0 2.0 0.00 0.00 0.00 68 1016.3
20260903113020 79 113 1.0 3.0 0.00 0.00 0.00 68 1016.3
20260903112519 79 113 2.0 3.0 0.00 0.00 0.00 68 1016.3
20260903112016 79 113 2.0 3.0 0.00 0.00 0.00 68 1016.3
20260903111531 79 114 2.0 4.0 0.00 0.00 0.00 68 1016.3
20260903111027 79 115 3.0 4.0 0.00 0.00 0.00 69 1016.3
20260903110523 79 115 2.0 4.0 0.00 0.00 0.00 69 1016.3
20260903110032 79 115 2.0 4.0 0.00 0.00 0.00 69 1016.2
20260903105513 79 117 2.0 5.0 0.00 0.00 0.00 69 1016.2
20260903105013 79 122 1.0 5.0 0.00 0.00 0.00 70 1016.3
20260903104529 79 122 3.0 5.0 0.00 0.00 0.00 69 1016.3
20260903104025 79 126 3.0 4.0 0.00 0.00 0.00 70 1016.3
20260903103521 79 127 2.0 3.0 0.00 0.00 0.00 70 1016.3
20260903103017 79 127 1.0 3.0 0.00 0.00 0.00 70 1016.4
20260903102513 79 127 2.0 4.0 0.00 0.00 0.00 69 1016.4
20260903102029 79 127 2.0 4.0 0.00 0.00 0.00 69 1016.3
20260903101524 79 127 1.0 3.0 0.00 0.00 0.00 69 1016.5
20260903101024 79 127 1.0 5.0 0.00 0.00 0.00 69 1016.4
20260903100520 79 127 2.0 5.0 0.00 0.00 0.00 69 1016.4
20260903100028 79 127 3.0 5.0 0.00 0.00 0.00 69 1016.5
20260903095530 80 127 2.0 4.0 0.00 0.00 0.00 69 1016.5
20260903095026 80 126 2.0 4.0 0.00 0.00 0.00 68 1016.5
20260903094522 80 127 2.0 4.0 0.00 0.00 0.00 68 1016.5
20260903094018 80 127 2.0 5.0 0.00 0.00 0.00 68 1016.4